Back to catalog

KUIPER-00454

AliveCommunicationsLEO
NORAD 68948·PAYLOAD·🇺🇸 United States

Launched Apr 30, 2026 from Guiana Space Centre

Loading…

Next Passes (next 24 hours)

TLE

FreshSource: CelesTrak SupGP

Epoch: Sep 15, 2026, 05:22 UTC

1 68948C 26098AF  26258.22368056  .00003123  00000+0  40845-3 0  2585
2 68948  51.9006  27.5059 0001100 112.7842 122.4968 14.79968623    11

Track KUIPER-00454 in real time with AllMySat

Download on the App Store